Debrecen, Hungary

7:38 AM CET on March 25, 2017 (GMT +0100)
Debrecen

Weather History for LHDC - October, 2012

Change the Weather History Date:

Tuesday, October 2, 2012

  Actual Average Record
Temperature  
Mean Temperature 66 °F -  
Max Temperature 70 °F 61 °F - ()
Min Temperature 62 °F 41 °F - ()
Cooling Degree Days 1    
Growing Degree Days 16 (Base 50)    
Moisture  
Dew Point 64 °F    
Average Humidity 90    
Maximum Humidity 100    
Minimum Humidity 81    
Precipitation  
Precipitation 0.12 in 0.04 in - ()
Sea Level Pressure  
Sea Level Pressure 30.02 in    
Wind  
Wind Speed 5 mph ()    
Max Wind Speed 14 mph    
Max Gust Speed 30 mph    
Visibility 5.4 miles    
Events Rain , Thunderstorm    
T = Trace of Precipitation, MM = Missing Value Source: Averaged Metar Reports

Daily Weather History Graph

Daily Weather History Graph

Search for Another Location

Airport or City:

Trip Planner

Search our weather history database for the weather conditions in past years. The results will help you decide how hot, cold, wet, or windy it might be!

Date:

Astronomy

Oct. 02, 2012 Rise Set
Actual Time 6:34 AM CEST 6:10 PM CEST
Civil Twilight 6:03 AM CEST 6:41 PM CEST
Nautical Twilight 5:27 AM CEST 7:16 PM CEST
Astronomical Twilight 4:51 AM CEST 7:52 PM CEST
Moon 6:58 PM CEST (10/2) 8:56 AM CEST (10/2)
Length of Visible Light 12h 37m
Length of Day
11h 36m
Waning Gibbous, 95% of the Moon is Illuminated
Oct 2
Waning Gibbous
Oct 8
Last Quarter
Oct 15
New
Oct 22
First Quarter
Oct 29
Full

Hourly Weather History & Observations

Time (CEST) Temp. Dew Point Humidity Pressure Visibility Wind Dir Wind Speed Gust Speed Precip Events Conditions
2:00 AM 65 °F 62 °F 87% 30.06 in - SSE 4.5 mph - -  
4:45 AM 62.6 °F 60.8 °F 94% 30.06 in 6.2 mi ESE 2.3 mph - N/A   Overcast
5:40 AM 62.6 °F 60.8 °F 94% 30.06 in - East 4.6 mph - N/A   Unknown
5:45 AM 62.6 °F 60.8 °F 94% 30.06 in 6.2 mi East 3.5 mph - N/A Rain Light Rain Showers
6:15 AM 62.6 °F 60.8 °F 94% 30.04 in 3.7 mi ENE 5.8 mph - N/A Rain Light Rain Showers
6:45 AM 62.6 °F 62.6 °F 100% 30.04 in 3.7 mi NE 5.8 mph - N/A Rain Light Rain Showers
7:00 AM - - N/A% - - East 4.6 mph - N/A Rain , Thunderstorm Rain Showers
7:15 AM 64.4 °F 62.6 °F 94% 30.04 in 4.3 mi North 3.5 mph - N/A   Scattered Clouds
7:45 AM 64.4 °F 62.6 °F 94% 30.04 in 4.3 mi East 3.5 mph - N/A   Scattered Clouds
8:15 AM 66.2 °F 62.6 °F 88% 30.04 in 5.0 mi NNE 2.3 mph - N/A   Scattered Clouds
8:45 AM 66.2 °F 64.4 °F 94% 30.04 in 5.0 mi North 3.5 mph - N/A   Mostly Cloudy
9:15 AM 66.2 °F 64.4 °F 94% 30.06 in 3.1 mi SSW 4.6 mph - N/A Rain Light Rain Showers
9:45 AM 66.2 °F 62.6 °F 88% 30.09 in 4.3 mi SW 13.8 mph - N/A Rain Light Rain Showers
10:00 AM - - N/A% - 6.2 mi Variable 3.5 mph - N/A   Scattered Clouds
10:15 AM 66.2 °F 62.6 °F 88% 30.09 in 5.0 mi WSW 4.6 mph - N/A Rain Light Rain Showers
10:45 AM 66.2 °F 64.4 °F 94% 30.06 in 5.0 mi North 3.5 mph - N/A   Scattered Clouds
11:15 AM 68.0 °F 64.4 °F 88% 30.06 in 5.6 mi NE 5.8 mph - N/A   Mostly Cloudy
11:45 AM 68.0 °F 64.4 °F 88% 30.06 in 4.3 mi ENE 5.8 mph - N/A Rain Light Rain
12:15 PM 66.2 °F 64.4 °F 94% 30.06 in 4.3 mi East 5.8 mph - N/A Rain Rain
12:45 PM 66.2 °F 64.4 °F 94% 30.04 in 4.3 mi ENE 8.1 mph - N/A Rain Light Rain
1:15 PM 68.0 °F 64.4 °F 88% 30.04 in 5.0 mi East 10.4 mph - N/A Rain Light Rain
1:45 PM 68.0 °F 64.4 °F 88% 30.01 in 6.2 mi East 10.4 mph - N/A Rain Light Rain
2:00 PM 68 °F 64 °F 81% 30.01 in 6 mi East 11.2 mph - - Rain Light Rain
2:45 PM 68.0 °F 64.4 °F 88% 30.01 in 6.2 mi ENE 10.4 mph - N/A Rain Light Rain
3:15 PM 68.0 °F 64.4 °F 88% 30.01 in 6.2 mi NNE 5.8 mph - N/A   Mostly Cloudy
3:45 PM 69.8 °F 64.4 °F 83% 30.01 in 6.2 mi NNE 5.8 mph - N/A   Scattered Clouds
4:00 PM - - N/A% - 6.2 mi NE 5.8 mph - N/A   Mostly Cloudy
4:15 PM 69.8 °F 64.4 °F 83% 29.98 in - ENE 11.5 mph - N/A   Clear
4:45 PM 69.8 °F 64.4 °F 83% 29.98 in - NE 8.1 mph - N/A   Clear
5:15 PM 69.8 °F 64.4 °F 83% 29.98 in - NNE 6.9 mph - N/A   Clear
5:45 PM 68.0 °F 64.4 °F 88% 29.98 in - NNE 6.9 mph - N/A   Clear
6:15 PM 68.0 °F 64.4 °F 88% 29.98 in - NNE 8.1 mph - N/A   Clear
6:45 PM 66.2 °F 64.4 °F 94% 29.98 in 6.2 mi NNE 6.9 mph - N/A   Mostly Cloudy
7:15 PM 66.2 °F 64.4 °F 94% 29.95 in 6.2 mi NNE 10.4 mph - N/A Rain Light Rain Showers
7:45 PM 66.2 °F 64.4 °F 94% 29.95 in 6.2 mi NNE 10.4 mph - N/A   Scattered Clouds
8:00 PM 66 °F 64 °F 90% 29.94 in 9 mi NNE 11.2 mph - - Rain Light Rain Showers
8:00 PM - - N/A% - - North - - N/A   Unknown
9:58 PM 66.2 °F 62.6 °F 88% 30.04 in - West 13.8 mph 29.9 mph N/A   Unknown